Regional Weather Roundup
Issued by NWS

Home | Current Version | Previous Version | Text Only | Print | Product List | Glossary Off
Versions: 1 2 3 4 5 6 7 8 9 10 11 12 13 14 15 16 17 18 19 20 21 22 23 24 25 26 27 28 29 30 31 32 33 34 35 36 37 38 39 40 41 42 43 44 45 46 47 48 49 50

000
ASUS43 KDTX 251401
RWRMI
MICHIGAN HOURLY REGIONAL WEATHER ROUNDUP
NATIONAL WEATHER SERVICE DETROIT/PONTIAC MI
1000 AM EDT WED MAY 25 2016

NOTE: "FAIR" INDICATES FEW OR NO CLOUDS BELOW 12,000 FEET WITH NO
SIGNIFICANT WEATHER AND/OR OBSTRUCTION TO VISIBILITY.

MIZ047>049-052>055-059>063-066>070-074>076-081>083-251500-
SOUTHEAST LOWER MICHIGAN

CITY           SKY/WX    TMP DP  RH WIND       PRES   REMARKS
ADRIAN         SUNNY     75  56  51 SW7       30.11R
ALMA           PTSUNNY   74  61  63 SW8       30.05R
ANN ARBOR      SUNNY     74  58  57 VRB5      30.09R
BAD AXE        SUNNY     73  57  58 W5        30.04S
CARO           SUNNY     75  58  56 SW7       30.03S
DETROIT CITY   SUNNY     76  56  49 W7        30.08R
DETROIT        MOSUNNY   76  56  49 SW9       30.09R
FLINT          MOSUNNY   79  58  48 SW10      30.06R
GROSSE ILE     SUNNY     70  61  73 S7        30.08S
HILLSDALE      SUNNY     74  50  42 SW7       30.11R
HOWELL         SUNNY     76  58  54 SW9       30.08R

CITY           SKY/WX    TMP DP  RH WIND       PRES   REMARKS
JACKSON        MOSUNNY   76  57  51 SW10      30.10R
LAMBERTVILLE   SUNNY     77  56  49 SW3       30.10R
LANSING        MOSUNNY   75  60  59 SW9       30.07R
LAPEER         FAIR      76  56  49 W8        30.06R
MASON          MOSUNNY   76  59  57 SW6       30.08R
MONROE         SUNNY     75  57  53 SW8       30.09R
MT. CLEMENS    PTSUNNY   79  58  48 SW8       30.06R
PONTIAC        PTSUNNY   77  58  51 W10       30.07R
PORT HOPE        N/A     59  55  87 CALM      30.02R
PORT HURON     MOSUNNY   73  57  56 SW5       30.06R
TRI CITIES     SUNNY     75  57  53 SW9       30.05R
MIDLAND        FAIR      73  58  59 SW5       30.03S
TROY           SUNNY     78  56  47 SW6       30.09R
SAGINAW HB     SUNNY     75  55  50 SW9       30.04R
$$
MIZ043>046-050>051-056>058-064>065-071>073-077>080-251500-
SOUTHWEST LOWER MICHIGAN

CITY           SKY/WX    TMP DP  RH WIND       PRES   REMARKS
BATTLE CREEK   SUNNY     74  58  57 S8        30.09R
BENTON HARBOR  SUNNY     76  62  62 S5        30.04F
BIG RAPIDS     SUNNY     72  63  73 SE3       30.04S
COLDWATER      SUNNY     75  58  53 SW3       30.10R
FREMONT        FAIR      73  62  68 SW8       30.04R
HOLLAND        SUNNY     76  62  62 SW10      30.05S
GRAND RAPIDS   MOSUNNY   77  61  57 SW12      30.06R
IONIA          CLOUDY    74  59  59 SW12      30.05R
KALAMAZOO      SUNNY     75  58  55 S7        30.08R
LUDINGTON      SUNNY     70  58  64 SW7       30.03S
MARSHALL       SUNNY     75  57  53 SW5       30.09R
MOUNT PLEASANT MOSUNNY   73  59  61 SW5       30.04R
MUSKEGON       PTSUNNY   72  57  59 SW13      30.05R
SOUTH HAVEN    SUNNY     76  62  62 SW6       30.05S
$$
MIZ016>042-251500-
NORTHERN LOWER MICHIGAN

CITY           SKY/WX    TMP DP  RH WIND       PRES   REMARKS
ALPENA         MOSUNNY   68  56  65 CALM      30.04F
BEAVER ISLAND  FOG       56  56 100 E8        30.06R VSB 3/4
BELLAIRE       SUNNY     63  61  94 CALM      30.05R
CADILLAC       SUNNY     73  59  61 CALM      30.05R
CHARLEVOIX     FOG       57  57 100 CALM      30.08R VSB 1
FRANKFORT      MOSUNNY   66  57  72 NE6       30.05R
GAYLORD        SUNNY     65  59  81 CALM      30.05R
GRAYLING       SUNNY     69  55  60 CALM      30.06R
HARBOR SPRINGS CLOUDY    57  56  97 E7        30.06R FOG
HOUGHTON LAKE  SUNNY     72  56  57 W5        30.05R
MANISTEE       MOSUNNY   70  57  64 CALM      30.05R
OSCODA         SUNNY     68  54  60 SE5       30.04R
PELLSTON       CLOUDY    57  56  96 E8        30.06R FOG
ROGERS CITY    CLOUDY    55  54  95 CALM      30.07R FOG
TRAVERSE CITY  PTSUNNY   64  55  72 N3        30.05R
$$
MIZ007>008-015-251500-
EASTERN UPPER MICHIGAN

CITY           SKY/WX    TMP DP  RH WIND       PRES   REMARKS
KINROSS          N/A     55  55 100 E8        30.06R
MACKINAC ISLAN CLOUDY    56  56 100 NE6       30.05R FOG
NEWBERRY       CLOUDY    56  56  97 NE5       30.07R
MUNISING         N/A     46  44  93 NE6       30.09R
$$
MIZ004>006-011>014-085-251500-
CENTRAL UPPER MICHIGAN

CITY           SKY/WX    TMP DP  RH WIND       PRES   REMARKS
MANISTIQUE     CLOUDY    56  55  97 N5        30.07R
ESCANABA       CLOUDY    63  55  77 NE8       30.06S
MENOMINEE      CLOUDY    58  54  86 SE8       30.08S
SAWYER-GWINN   FOG       48  46  93 N6        30.10R VSB 1
$$
MIZ001>003-009>011-084-251500-
WESTERN UPPER MICHIGAN

CITY           SKY/WX    TMP DP  RH WIND       PRES   REMARKS
IRON MOUNTAIN  CLOUDY    55  52  89 CALM      30.08R
HOUGHTON       FOG       47  45  93 E13       30.09R VSB 1/2
COPPER HARBOR    N/A     48  46  93 E3        30.10R
IRONWOOD       CLOUDY    57  57 100 E9        30.01R
$$

ABBREVIATIONS USED IN REMARKS
   TC - TEMPERATURE IN CELSIUS
  WCI - WIND CHILL INDEX
   HX - HEAT INDEX
  VSB - VISIBILITY




USA.gov is the U.S. government's official web portal to all federal, state and local government web resources and services.